Regional Weather Roundup
Issued by NWS Portland, ME

Home | Current Version | Previous Version | Text Only | Print | Product List | Glossary On
Versions: 1 2 3 4 5 6 7 8 9 10 11 12 13 14 15 16 17 18 19 20 21 22 23 24 25 26 27 28 29 30 31 32 33 34 35 36 37 38 39 40 41 42 43 44 45 46 47 48 49 50
649
ASUS41 KGYX 220010
RWRGYX
WEATHER ROUNDUP FOR MAINE AND NEW HAMPSHIRE
NATIONAL WEATHER SERVICE GRAY ME
800 PM EDT MON AUG 21 2017

MEZ002-005-006-010-012-015-018-020-021-024-026-027-029-220100-
MAINE

CITY           SKY/WX    TMP DP  RH WIND       PRES   REMARKS
PORTLAND       CLEAR     73  64  73 S6        30.03S
6HR MIN TEMP:  73; 6HR MAX TEMP:  86;

SANFORD        CLEAR     68  65  90 SW3       30.06R
BAR HARBOR     CLEAR     67  60  78 SW7       30.02S
WISCASSET      CLEAR     72  63  73 S3        30.04R
6HR MIN TEMP:  72; 6HR MAX TEMP:  84;

ROCKLAND       CLEAR     70  62  76 SW8       30.02S
FRYEBURG       CLEAR     73  64  73 SW6       30.04S
6HR MIN TEMP:  72; 6HR MAX TEMP:  84;

LEWISTONAUBURN CLEAR     74  64  71 S5        30.03S
AUGUSTA        CLEAR     74  66  76 S3        30.03R
6HR MIN TEMP:  74; 6HR MAX TEMP:  83;

WATERVILLE     CLEAR     70  64  81 CALM      29.99S
BANGOR         PTCLDY    76  61  59 S6        29.99F
6HR MIN TEMP:  75; 6HR MAX TEMP:  85;

GREENVILLE       N/A     70  57  63 CALM      30.01S
6HR MIN TEMP:  69; 6HR MAX TEMP:  78;

MILLINOCKET    CLEAR     70  62  76 CALM      29.98S
6HR MIN TEMP:  70; 6HR MAX TEMP:  83;

HOULTON        CLEAR     68  61  78 S3        29.94R
6HR MIN TEMP:  68; 6HR MAX TEMP:  81;

PRESQUE ISLE   CLOUDY    75  60  59 SW6       29.94R
6HR MIN TEMP:  75; 6HR MAX TEMP:  82;

FRENCHVILLE    CLOUDY    71  58  63 SW9       29.91R
6HR MIN TEMP:  71; 6HR MAX TEMP:  79;

CARIBOU        CLOUDY    73  60  63 SW5       29.92R
6HR MIN TEMP:  73; 6HR MAX TEMP:  83;

$$

NHZ002-005-008-009-011-012-014-220100-
NEW HAMPSHIRE

CITY           SKY/WX    TMP DP  RH WIND       PRES   REMARKS
PORTSMOUTH     CLEAR     76  64  65 S5        30.04S
ROCHESTER      CLEAR     75  63  66 CALM      30.05S
6HR MIN TEMP:  74; 6HR MAX TEMP:  85;

NASHUA         CLEAR     76  67  73 SW3       30.07S
MANCHESTER     CLEAR     79  64  60 S5        30.05S
6HR MIN TEMP:  79; 6HR MAX TEMP:  85;

CONCORD        CLEAR     73  64  73 S3        30.06S
6HR MIN TEMP:  73; 6HR MAX TEMP:  85;

LACONIA        CLEAR     74  63  68 SW3       30.06S
PLYMOUTH       FAIR      69  64  84 CALM      30.06R
BERLIN         CLEAR     67  62  84 CALM      30.06S
6HR MIN TEMP:  67; 6HR MAX TEMP:  81;

WHITEFIELD     CLEAR     71  61  70 SW3       30.06S
6HR MIN TEMP:  71; 6HR MAX TEMP:  80;

JAFFREY        CLEAR     70  66  87 S5        30.12R
6HR MIN TEMP:  70; 6HR MAX TEMP:  82;

KEENE            N/A    N/A N/A N/A MISG        N/A
LEBANON        CLEAR     72  64  76 S8        30.06R
6HR MIN TEMP:  70; 6HR MAX TEMP:  85;

MT WASHINGTON  PTCLDY    51  49  95 W40         N/A
6HR MIN TEMP:  50; 6HR MAX TEMP:  52;

$$

VTZ005-007-008-220100-
VERMONT

CITY           SKY/WX    TMP DP  RH WIND       PRES   REMARKS
ST JOHNSBURY     N/A     73  66  78 MISG      30.03S
MONTPELIER     CLEAR     71  63  75 S5        30.10S
BURLINGTON     CLEAR     78  67  68 S8        30.01S
$$

MAZ007-012-024-CTZ003-RIZ002-NYZ038-NYZ072-220100-
SOUTHERN NEW ENGLAND AND NY

CITY           SKY/WX    TMP DP  RH WIND       PRES   REMARKS
BOSTON         PTCLDY    81  63  54 SW10      30.06F
WORCESTER      CLEAR     73  59  61 SW7       30.12S
NANTUCKET      CLEAR     69  67  93 W9        30.12S
PROVIDENCE     PTCLDY    76  66  71 SW9       30.10S
HARTFORD       PTCLDY    79  65  62 S7        30.08S
ALBANY         PTCLDY    80  66  62 S6        30.05S
NEW YORK CITY  MOCLDY    81  70  69 S10       30.10R
$$

ANZ081-ANZ082-ANZ150-NHZ014-MEZ023>029-220100-
COASTAL MARINE OBSERVATIONS

STATION/POSITION TIME  TEMP    WIND        PRES    WAVE
                       AIR SEA DIR/SP/G            HT/PER
                 (UTC) (F)     (DEG/KT/KT) (MB)    (FT/S)
MOUNT DESERT ROC 0000   62                 1016.8F
MATINICUS ROCK   2300   67     220/ 22/ 22 1016.5S
ISLE OF SHOALS   2300   80     240/  9/  9 1017.2F
JEFFREYS LEDGE   2306      67                N/A     1/ 5
CASHES LEDGE BUO 2350   70 69              1017.3F   2/ 3
GEORGES BANK BUO 2250   66 66              1019.5    2/ 6
$$

.............KEY..............
   WCI - WIND CHILL
   TC  - TEMPERATURE IN CELSIUS
   VSB - VISIBILITY IN MILES
   HX  - HEAT INDEX
   FAIR- INDICATES FEW OR NO CLOUDS BELOW 12,000 FT, WITH NO
         SIGNIFICANT WEATHER AND/OR OBSTRUCTIONS TO VISIBILITY.






USA.gov is the U.S. government's official web portal to all federal, state and local government web resources and services.